EB5ETD Weather Reports


Display with metric or nautical units.
time (UTC)temp
F
wind
direction
speed
MPH
gust
MPH
rain 1hr
in
rain 24hr
in
rain mn
in
humidity
%
barometer
mb
20260905165004 93 36 1.0 3.0 0.00 0.00 0.00 25 1027.4
20260905164504 92 348 1.0 3.0 0.00 0.00 0.00 25 1027.2
20260905164003 93 31 3.0 7.0 0.00 0.00 0.00 24 1027.1
20260905163504 93 46 2.0 6.0 0.00 0.00 0.00 24 1026.9
20260905163004 93 25 1.0 6.0 0.00 0.00 0.00 23 1026.9
20260905162504 94 8 1.0 6.0 0.00 0.00 0.00 22 1027.0
20260905162003 94 47 3.0 7.0 0.00 0.00 0.00 22 1026.9
20260905161503 94 44 4.0 8.0 0.00 0.00 0.00 22 1026.8
20260905161003 94 39 2.0 7.0 0.00 0.00 0.00 21 1026.9
20260905160504 95 71 3.0 7.0 0.00 0.00 0.00 21 1026.7
20260905160004 95 25 1.0 5.0 0.00 0.00 0.00 23 1026.7
20260905155504 95 2 2.0 6.0 0.00 0.00 0.00 22 1026.9
20260905155004 95 27 3.0 12.0 0.00 0.00 0.00 20 1026.8
20260905154504 96 62 5.0 9.0 0.00 0.00 0.00 19 1026.8
20260905154004 96 336 1.0 6.0 0.00 0.00 0.00 22 1026.6
20260905153504 98 50 2.0 3.0 0.00 0.00 0.00 21 1026.4
20260905153004 97 29 1.0 5.0 0.00 0.00 0.00 20 1026.5
20260905152503 97 48 2.0 6.0 0.00 0.00 0.00 20 1026.4
20260905152004 97 75 2.0 8.0 0.00 0.00 0.00 20 1026.3
20260905151503 98 39 2.0 8.0 0.00 0.00 0.00 19 1026.4
20260905151004 97 62 2.0 7.0 0.00 0.00 0.00 21 1026.2
20260905150504 99 322 2.0 5.0 0.00 0.00 0.00 21 1026.4
20260905150003 99 266 2.0 3.0 0.00 0.00 0.00 23 1026.4
20260905145504 99 225 2.0 5.0 0.00 0.00 0.00 24 1026.5
20260905145004 98 240 2.0 3.0 0.00 0.00 0.00 24 1026.6
20260905144504 98 201 1.0 5.0 0.00 0.00 0.00 24 1026.6
20260905143504 97 196 3.0 7.0 0.00 0.00 0.00 25 1026.7
20260905142504 98 220 3.0 6.0 0.00 0.00 0.00 24 1026.9
20260905141004 97 203 2.0 7.0 0.00 0.00 0.00 25 1026.9
20260905140504 98 219 3.0 7.0 0.00 0.00 0.00 25 1027.0
20260905140005 98 57 3.0 6.0 0.00 0.00 0.00 25 1026.9
20260905135503 97 251 2.0 6.0 0.00 0.00 0.00 25 1027.0
20260905134503 97 275 1.0 3.0 0.00 0.00 0.00 24 1027.0
20260905134004 96 228 3.0 6.0 0.00 0.00 0.00 24 1027.4
20260905133504 96 35 3.0 7.0 0.00 0.00 0.00 24 1027.3
20260905133004 97 250 2.0 5.0 0.00 0.00 0.00 25 1027.3
20260905132504 97 244 5.0 8.0 0.00 0.00 0.00 25 1027.3
20260905132004 97 241 1.0 6.0 0.00 0.00 0.00 24 1027.4
20260905131504 96 41 3.0 7.0 0.00 0.00 0.00 24 1027.5
20260905131004 97 228 3.0 7.0 0.00 0.00 0.00 25 1027.4
20260905130504 96 207 2.0 9.0 0.00 0.00 0.00 24 1027.5
20260905130004 96 249 2.0 7.0 0.00 0.00 0.00 24 1027.6
20260905125503 96 233 3.0 9.0 0.00 0.00 0.00 24 1027.6
20260905125003 96 226 3.0 6.0 0.00 0.00 0.00 23 1027.5
20260905124504 96 274 2.0 9.0 0.00 0.00 0.00 23 1027.6
20260905124005 95 57 4.0 9.0 0.00 0.00 0.00 24 1027.6
20260905122504 96 90 1.0 6.0 0.00 0.00 0.00 24 1027.5
20260905122004 96 40 3.0 7.0 0.00 0.00 0.00 24 1027.6
20260905121504 96 220 2.0 8.0 0.00 0.00 0.00 24 1027.7
20260905121005 96 224 2.0 7.0 0.00 0.00 0.00 24 1027.6
20260905120003 95 203 3.0 7.0 0.00 0.00 0.00 25 1027.5
20260905115504 95 244 4.0 8.0 0.00 0.00 0.00 25 1027.7
20260905115004 95 249 3.0 8.0 0.00 0.00 0.00 26 1027.7
20260905114503 95 261 5.0 8.0 0.00 0.00 0.00 25 1027.8
20260905114006 96 249 3.0 7.0 0.00 0.00 0.00 25 1027.6
20260905113504 96 228 3.0 8.0 0.00 0.00 0.00 25 1027.8
20260905112004 96 231 3.0 9.0 0.00 0.00 0.00 25 1027.7
20260905111504 95 238 3.0 9.0 0.00 0.00 0.00 25 1027.7
20260905111003 95 235 5.0 9.0 0.00 0.00 0.00 25 1027.7
20260905110504 96 290 2.0 5.0 0.00 0.00 0.00 24 1027.7
20260905110004 95 10 1.0 6.0 0.00 0.00 0.00 24 1027.7
20260905105005 94 109 2.0 9.0 0.00 0.00 0.00 21 1027.8
20260905104004 95 40 3.0 8.0 0.00 0.00 0.00 18 1027.8
20260905103504 94 65 3.0 7.0 0.00 0.00 0.00 19 1028.0
20260905103004 95 60 4.0 10.0 0.00 0.00 0.00 19 1027.5
20260905102004 94 40 2.0 8.0 0.00 0.00 0.00 18 1027.9
20260905101503 94 67 5.0 9.0 0.00 0.00 0.00 20 1027.8
20260905101004 94 79 3.0 8.0 0.00 0.00 0.00 21 1027.8
20260905100004 94 78 3.0 6.0 0.00 0.00 0.00 22 1027.8
20260905095504 93 251 3.0 9.0 0.00 0.00 0.00 25 1027.9
20260905095004 94 341 2.0 7.0 0.00 0.00 0.00 24 1027.6
20260905094504 93 58 5.0 9.0 0.00 0.00 0.00 26 1027.6
20260905094004 93 38 3.0 9.0 0.00 0.00 0.00 25 1027.6
20260905093504 93 40 3.0 7.0 0.00 0.00 0.00 26 1027.6
20260905093003 93 111 3.0 7.0 0.00 0.00 0.00 25 1027.6
20260905092504 94 259 2.0 3.0 0.00 0.00 0.00 29 1027.4
20260905092005 94 250 1.0 2.0 0.00 0.00 0.00 30 1027.4
20260905091503 94 70 0.0 1.0 0.00 0.00 0.00 32 1027.4
20260905091003 93 70 0.0 1.0 0.00 0.00 0.00 33 1027.4
20260905090504 91 70 1.0 2.0 0.00 0.00 0.00 36 1027.8
20260905090004 90 69 1.0 2.0 0.00 0.00 0.00 37 1027.6
20260905085504 89 56 1.0 2.0 0.00 0.00 0.00 39 1027.7
20260905085004 88 86 1.0 3.0 0.00 0.00 0.00 44 1027.7
20260905084503 88 76 1.0 2.0 0.00 0.00 0.00 46 1027.6
20260905084004 87 77 1.0 2.0 0.00 0.00 0.00 46 1027.8
20260905083504 86 199 0.0 2.0 0.00 0.00 0.00 47 1027.7
20260905083004 85 199 1.0 5.0 0.00 0.00 0.00 49 1027.7
20260905082504 84 199 2.0 3.0 0.00 0.00 0.00 50 1027.8
20260905082004 84 199 1.0 2.0 0.00 0.00 0.00 49 1027.5
20260905081504 83 199 1.0 2.0 0.00 0.00 0.00 49 1027.8
20260905080503 81 199 1.0 2.0 0.00 0.00 0.00 50 1027.8
20260905080003 81 199 1.0 2.0 0.00 0.00 0.00 49 1027.8
20260905075504 80 199 0.0 0.0 0.00 0.00 0.00 49 1027.8
20260905074504 78 199 0.0 1.0 0.00 0.00 0.00 51 1028.0
20260905073504 78 199 0.0 0.0 0.00 0.00 0.00 50 1027.9
20260905073004 76 199 0.0 0.0 0.00 0.00 0.00 53 1028.0
20260905072504 75 199 0.0 1.0 0.00 0.00 0.00 55 1027.9
20260905072004 74 199 1.0 1.0 0.00 0.00 0.00 55 1028.0
20260905071504 74 199 0.0 1.0 0.00 0.00 0.00 55 1028.0
20260905070004 73 199 0.0 0.0 0.00 0.00 0.00 57 1027.9
20260905065504 73 199 0.0 0.0 0.00 0.00 0.00 58 1027.9
20260905065004 72 199 0.0 1.0 0.00 0.00 0.00 58 1027.9
20260905064504 72 199 0.0 0.0 0.00 0.00 0.00 58 1027.8
20260905063503 71 199 0.0 0.0 0.00 0.00 0.00 59 1027.8
20260905062503 70 199 0.0 0.0 0.00 0.00 0.00 59 1027.9
20260905061504 70 199 0.0 0.0 0.00 0.00 0.00 60 1027.9
20260905061004 70 199 0.0 1.0 0.00 0.00 0.00 61 1027.8
20260905060504 70 199 0.0 0.0 0.00 0.00 0.00 61 1027.8
20260905060004 70 199 0.0 1.0 0.00 0.00 0.00 62 1027.6
20260905055505 69 199 0.0 1.0 0.00 0.00 0.00 62 1027.8
20260905055004 69 199 0.0 1.0 0.00 0.00 0.00 62 1027.5
20260905054503 70 199 1.0 1.0 0.00 0.00 0.00 62 1027.6
20260905054004 70 199 1.0 1.0 0.00 0.00 0.00 63 1027.5
20260905053504 70 199 0.0 1.0 0.00 0.00 0.00 65 1027.3
20260905053004 70 199 1.0 1.0 0.00 0.00 0.00 65 1027.4
20260905052503 70 199 1.0 1.0 0.00 0.00 0.00 64 1027.2
20260905052004 70 199 1.0 2.0 0.00 0.00 0.00 63 1027.3
20260905051504 69 199 0.0 1.0 0.00 0.00 0.00 63 1027.4
20260905051004 69 199 0.0 1.0 0.00 0.00 0.00 63 1027.2
20260905050504 69 199 1.0 1.0 0.00 0.00 0.00 63 1027.0
20260905050004 69 199 0.0 1.0 0.00 0.00 0.00 64 1027.1
20260905045503 69 199 0.0 1.0 0.00 0.00 0.00 64 1027.1
20260905045003 70 199 0.0 1.0 0.00 0.00 0.00 64 1027.0
20260905044504 70 199 0.0 0.0 0.00 0.00 0.00 65 1027.0
20260905044004 70 199 0.0 0.0 0.00 0.00 0.00 65 1026.7
20260905043503 70 199 0.0 1.0 0.00 0.00 0.00 65 1026.7
20260905043004 70 199 0.0 0.0 0.00 0.00 0.00 65 1026.8
20260905042503 70 199 0.0 0.0 0.00 0.00 0.00 66 1026.7
20260905042004 70 199 0.0 0.0 0.00 0.00 0.00 66 1026.6
20260905041504 70 199 0.0 0.0 0.00 0.00 0.00 66 1026.7
20260905041004 70 199 0.0 0.0 0.00 0.00 0.00 66 1026.6
20260905040503 71 199 0.0 0.0 0.00 0.00 0.00 67 1026.6
20260905040004 71 199 0.0 0.0 0.00 0.00 0.00 66 1026.5
20260905034504 71 199 0.0 0.0 0.00 0.00 0.00 67 1026.7
20260905034003 71 199 1.0 2.0 0.00 0.00 0.00 66 1026.6
20260905033504 71 199 1.0 1.0 0.00 0.00 0.00 67 1026.5
20260905033004 71 199 0.0 1.0 0.00 0.00 0.00 67 1026.3
20260905032003 71 199 1.0 2.0 0.00 0.00 0.00 66 1026.3
20260905031504 71 199 1.0 1.0 0.00 0.00 0.00 67 1026.5
20260905031004 71 200 0.0 2.0 0.00 0.00 0.00 66 1026.4
20260905030504 71 200 0.0 0.0 0.00 0.00 0.00 66 1026.6
20260905030003 71 200 0.0 0.0 0.00 0.00 0.00 66 1026.5
20260905025504 72 200 0.0 0.0 0.00 0.00 0.00 66 1026.3
20260905025004 71 200 0.0 0.0 0.00 0.00 0.00 66 1026.3
20260905024504 71 200 0.0 0.0 0.00 0.00 0.00 66 1026.3
20260905024003 71 200 0.0 0.0 0.00 0.00 0.00 66 1026.4
20260905023503 72 200 0.0 0.0 0.00 0.00 0.00 66 1026.3
20260905023004 72 200 0.0 2.0 0.00 0.00 0.00 65 1026.2
20260905022503 72 200 0.0 1.0 0.00 0.00 0.00 65 1026.3
20260905021504 73 200 1.0 1.0 0.00 0.00 0.00 64 1026.1
20260905021004 73 200 0.0 1.0 0.00 0.00 0.00 64 1026.3
20260905020504 72 200 1.0 2.0 0.00 0.00 0.00 64 1026.3
20260905020005 72 200 1.0 2.0 0.00 0.00 0.00 64 1026.3
20260905015503 72 200 0.0 0.0 0.00 0.00 0.00 64 1026.2
20260905015004 72 199 0.0 1.0 0.00 0.00 0.00 64 1026.1
20260905014003 73 200 0.0 0.0 0.00 0.00 0.00 64 1026.1
20260905013504 73 200 0.0 2.0 0.00 0.00 0.00 64 1026.1
20260905013004 73 188 0.0 1.0 0.00 0.00 0.00 63 1026.4
20260905012504 73 189 0.0 1.0 0.00 0.00 0.00 63 1026.1
20260905012003 73 189 0.0 1.0 0.00 0.00 0.00 62 1026.3
20260905011004 73 188 0.0 1.0 0.00 0.00 0.00 62 1026.4
20260905010503 73 187 0.0 0.0 0.00 0.00 0.00 62 1026.5
20260905010004 73 187 0.0 0.0 0.00 0.00 0.00 62 1026.3
20260905005504 73 189 1.0 2.0 0.00 0.00 0.00 61 1026.6
20260905005004 73 203 0.0 0.0 0.00 0.00 0.00 60 1026.6
20260905004004 74 203 0.0 1.0 0.00 0.00 0.00 60 1026.7
20260905003504 74 203 0.0 1.0 0.00 0.00 0.00 60 1026.6
20260905003004 74 203 1.0 1.0 0.00 0.00 0.00 60 1026.6
20260905002504 74 203 1.0 1.0 0.00 0.00 0.00 59 1026.7
20260905002004 74 205 0.0 2.0 0.00 0.00 0.00 59 1026.9
20260905001504 74 206 1.0 2.0 0.00 0.00 0.00 58 1026.9
20260905001004 75 214 0.0 1.0 0.00 0.00 0.00 58 1026.9
20260905000505 75 214 0.0 0.0 0.00 0.00 0.00 58 1026.7
20260904235504 74 215 0.0 1.0 0.00 0.00 0.00 58 1027.0
20260904235004 74 214 0.0 1.0 0.00 0.00 0.00 58 1026.9
20260904234504 74 223 0.0 1.0 0.00 0.00 0.00 58 1027.0
20260904234004 75 228 0.0 1.0 0.00 0.00 0.00 58 1026.8
20260904233504 75 228 0.0 1.0 0.00 0.00 0.00 58 1026.9
20260904233004 75 229 0.0 0.0 0.00 0.00 0.00 58 1026.9
20260904232504 75 229 0.0 1.0 0.00 0.00 0.00 57 1026.9
20260904232004 75 234 1.0 1.0 0.00 0.00 0.00 57 1027.1
20260904231504 75 234 1.0 1.0 0.00 0.00 0.00 57 1027.1
20260904231004 75 234 1.0 1.0 0.00 0.00 0.00 57 1027.0
20260904230503 76 246 0.0 0.0 0.00 0.00 0.00 57 1027.0
20260904230003 76 246 0.0 0.0 0.00 0.00 0.00 57 1027.0
20260904225504 76 247 0.0 0.0 0.00 0.00 0.00 59 1026.9
20260904225004 77 247 0.0 0.0 0.00 0.00 0.00 58 1026.8
20260904224504 77 247 0.0 0.0 0.00 0.00 0.00 58 1026.8
20260904224003 76 247 1.0 2.0 0.00 0.00 0.00 57 1027.0
20260904223504 76 178 1.0 2.0 0.00 0.00 0.00 58 1026.7
20260904223004 77 209 1.0 2.0 0.00 0.00 0.00 58 1026.8
20260904222504 77 238 0.0 0.0 0.00 0.00 0.00 58 1026.8
20260904222004 77 238 0.0 0.0 0.00 0.00 0.00 58 1026.8
20260904221504 77 238 0.0 0.0 0.00 0.00 0.00 57 1026.8
20260904221004 78 238 0.0 0.0 0.00 0.00 0.00 58 1026.7
20260904220003 78 239 0.0 1.0 0.00 0.00 0.00 57 1026.8
20260904215004 78 236 2.0 2.0 0.00 0.00 0.00 57 1026.8
20260904214504 78 212 1.0 2.0 0.00 0.00 0.00 57 1026.6
20260904214004 78 149 0.0 0.0 0.00 0.00 0.00 58 1026.7
20260904213504 79 149 0.0 0.0 0.00 0.00 0.00 58 1026.7
20260904213004 79 149 0.0 0.0 0.00 0.00 0.00 59 1026.5
20260904212504 79 149 0.0 0.0 0.00 0.00 0.00 59 1026.8
20260904212003 79 149 0.0 0.0 0.00 0.00 0.00 58 1026.7
20260904211503 79 149 0.0 1.0 0.00 0.00 0.00 58 1026.7
20260904211005 79 225 1.0 3.0 0.00 0.00 0.00 58 1026.6
20260904210504 80 217 1.0 3.0 0.00 0.00 0.00 58 1026.6
20260904210004 80 211 1.0 2.0 0.00 0.00 0.00 58 1026.6
20260904205504 80 206 1.0 2.0 0.00 0.00 0.00 58 1026.5
20260904205004 81 205 1.0 2.0 0.00 0.00 0.00 58 1026.5
20260904204504 81 214 0.0 1.0 0.00 0.00 0.00 58 1026.4
20260904204005 81 214 1.0 1.0 0.00 0.00 0.00 57 1026.5
20260904203505 82 148 0.0 1.0 0.00 0.00 0.00 57 1026.3
20260904203004 82 178 1.0 2.0 0.00 0.00 0.00 56 1026.5
20260904202504 82 152 0.0 2.0 0.00 0.00 0.00 54 1026.5
20260904202004 83 153 0.0 1.0 0.00 0.00 0.00 53 1026.4
20260904201504 83 153 1.0 2.0 0.00 0.00 0.00 52 1026.5
20260904201003 83 195 0.0 1.0 0.00 0.00 0.00 50 1026.5
20260904195004 85 222 1.0 2.0 0.00 0.00 0.00 52 1026.1
20260904194503 85 223 1.0 2.0 0.00 0.00 0.00 52 1026.3
20260904193503 86 235 1.0 3.0 0.00 0.00 0.00 53 1026.2
20260904193004 86 255 2.0 3.0 0.00 0.00 0.00 54 1026.3
20260904192503 86 225 2.0 3.0 0.00 0.00 0.00 55 1026.0
20260904192004 87 220 2.0 3.0 0.00 0.00 0.00 56 1026.2
20260904191003 87 225 1.0 3.0 0.00 0.00 0.00 56 1026.3
20260904190504 87 301 1.0 3.0 0.00 0.00 0.00 56 1026.1
20260904190004 87 301 0.0 0.0 0.00 0.00 0.00 55 1026.3
20260904185004 88 301 0.0 3.0 0.00 0.00 0.00 54 1025.9
20260904184504 89 73 0.0 2.0 0.00 0.00 0.00 52 1025.8
20260904183504 89 343 0.0 2.0 0.00 0.00 0.00 50 1025.7
20260904183004 90 18 2.0 3.0 0.00 0.00 0.00 44 1025.6
20260904182004 91 28 1.0 2.0 0.00 0.00 0.00 41 1025.6
20260904181504 91 7 0.0 1.0 0.00 0.00 0.00 38 1025.5
20260904181004 92 7 0.0 1.0 0.00 0.00 0.00 34 1025.5
20260904180504 92 355 0.0 1.0 0.00 0.00 0.00 33 1025.4
20260904180003 92 90 1.0 3.0 0.00 0.00 0.00 33 1025.5
20260904175503 93 43 1.0 3.0 0.00 0.00 0.00 33 1025.4
20260904174504 94 43 2.0 5.0 0.00 0.00 0.00 29 1025.5
20260904174004 94 63 2.0 3.0 0.00 0.00 0.00 26 1025.4
20260904173504 94 54 2.0 5.0 0.00 0.00 0.00 25 1025.2
20260904173004 95 54 2.0 5.0 0.00 0.00 0.00 25 1025.1
20260904172503 95 51 2.0 6.0 0.00 0.00 0.00 24 1025.1
20260904172004 96 54 3.0 6.0 0.00 0.00 0.00 22 1025.0
20260904171004 97 56 3.0 5.0 0.00 0.00 0.00 20 1024.9
20260904170503 97 49 3.0 9.0 0.00 0.00 0.00 19 1024.9
20260904170004 97 48 4.0 6.0 0.00 0.00 0.00 18 1024.9
20260904165504 98 52 3.0 5.0 0.00 0.00 0.00 21 1024.8